TimeMDT,TemperatureF,Dew PointF,Humidity,Sea Level PressureIn,VisibilityMPH,Wind Direction,Wind SpeedMPH,Gust SpeedMPH,PrecipitationIn,Events,Conditions,WindDirDegrees,DateUTC
12:48 AM,25.0,23.0,92,29.98,-9999.0,Calm,Calm,-,N/A,,Unknown,0,2013-10-30 06:48:00
1:48 AM,28.9,28.0,96,29.96,-9999.0,South,6.9,-,N/A,,Unknown,180,2013-10-30 07:48:00
2:48 AM,28.9,28.0,96,29.94,-9999.0,South,11.5,-,N/A,,Unknown,180,2013-10-30 08:48:00
3:48 AM,26.1,25.0,96,29.94,-9999.0,SE,3.5,-,N/A,,Unknown,130,2013-10-30 09:48:00
4:48 AM,26.1,24.1,92,29.91,-9999.0,Calm,Calm,-,N/A,,Unknown,0,2013-10-30 10:48:00
5:48 AM,23.0,19.9,88,29.91,-9999.0,Calm,Calm,-,N/A,,Unknown,0,2013-10-30 11:48:00
6:48 AM,21.0,19.0,92,29.91,-9999.0,Calm,Calm,-,N/A,,Unknown,0,2013-10-30 12:48:00
7:48 AM,19.0,16.0,88,29.89,-9999.0,Calm,Calm,-,N/A,,Unknown,0,2013-10-30 13:48:00
8:48 AM,23.0,21.9,96,29.90,-9999.0,Calm,Calm,-,N/A,,Unknown,0,2013-10-30 14:48:00
9:48 AM,30.9,28.0,89,29.88,-9999.0,SW,9.2,-,N/A,,Unknown,220,2013-10-30 15:48:00
10:48 AM,34.0,28.0,79,29.87,-9999.0,WSW,8.1,-,N/A,,Unknown,240,2013-10-30 16:48:00
11:48 AM,37.9,28.9,70,29.86,-9999.0,WSW,8.1,-,N/A,,Unknown,240,2013-10-30 17:48:00
12:48 PM,41.0,28.9,62,29.83,-9999.0,WSW,11.5,-,N/A,,Unknown,250,2013-10-30 18:48:00
1:48 PM,45.0,30.9,58,29.79,-9999.0,West,11.5,-,N/A,,Unknown,270,2013-10-30 19:48:00
2:48 PM,48.0,28.9,48,29.77,-9999.0,West,19.6,25.3,N/A,,Unknown,270,2013-10-30 20:48:00
3:48 PM,46.9,28.0,48,29.77,-9999.0,West,17.3,-,N/A,,Unknown,280,2013-10-30 21:48:00
4:48 PM,46.0,28.9,51,29.78,-9999.0,WNW,15.0,-,N/A,,Unknown,290,2013-10-30 22:48:00
5:48 PM,42.1,28.9,60,29.78,-9999.0,West,6.9,-,N/A,,Unknown,280,2013-10-30 23:48:00
6:48 PM,33.1,27.0,78,29.81,-9999.0,West,5.8,-,N/A,,Unknown,280,2013-10-31 00:48:00
7:48 PM,32.0,27.0,82,29.81,-9999.0,WNW,5.8,-,N/A,,Unknown,290,2013-10-31 01:48:00
8:48 PM,30.0,26.1,85,29.81,-9999.0,NW,3.5,-,N/A,,Unknown,310,2013-10-31 02:48:00
9:48 PM,30.0,27.0,88,29.80,-9999.0,WNW,4.6,-,N/A,,Unknown,300,2013-10-31 03:48:00
10:48 PM,28.9,26.1,89,29.80,-9999.0,WNW,4.6,-,N/A,,Unknown,290,2013-10-31 04:48:00
11:48 PM,28.9,27.0,92,29.79,-9999.0,West,6.9,-,N/A,,Unknown,280,2013-10-31 05:48:00